Regional Weather Roundup
Issued by NWS

Home | Current Version | Previous Version | Text Only | Print | Product List | Glossary On
Versions: 1 2 3 4 5 6 7 8 9 10 11 12 13 14 15 16 17 18 19 20 21 22 23 24 25 26 27 28 29 30 31 32 33 34 35 36 37 38 39 40 41 42 43 44 45 46 47 48 49 50
000
ASUS45 KPSR 021910
RWRAZ

ARIZONA HOURLY REGIONAL WEATHER ROUNDUP
NATIONAL WEATHER SERVICE PHOENIX AZ
1200 PM MST WED SEP 02 2015

NOTE: FAIR INDICATES FEW OR NO CLOUDS BELOW 12,000 FEET WITH NO
SIGNIFICANT WEATHER AND/OR OBSTRUCTIONS TO VISIBILITY.

AZZ001>003-036-022000-
NORTHWEST ARIZONA

CITY           SKY/WX    TMP DP  RH WIND       PRES   REMARKS
BULLHEAD CITY  MOSUNNY   99  46  16 S16G22    29.86F
KINGMAN        PTSUNNY   90  44  20 SW15      30.05F
$$

AZZ004>008-015-016-018-022000-
NORTH CENTRAL ARIZONA

CITY           SKY/WX    TMP DP  RH WIND       PRES   REMARKS
GRAND CANYON   MOSUNNY   76  48  37 SW8G21    30.28F
WILLIAMS       SUNNY     75  46  35 S10G20    30.33F
PRESCOTT       MOSUNNY   82  49  31 S9        30.17F
FLAGSTAFF      PTSUNNY   71  53  52 SW13G21   30.32F
PAYSON         PTSUNNY   81  57  44 SW8       30.22F
PAGE           SUNNY     88  47  24 VRB7      30.09F
$$

AZZ009>014-017-022000-
NORTHEAST ARIZONA

CITY           SKY/WX    TMP DP  RH WIND       PRES   REMARKS
WINSLOW        CLOUDY    81  56  42 SE8       30.17F
SAINT JOHNS    CLOUDY    79  53  40 CALM      30.23F
SHOW LOW       CLOUDY    73  50  43 S5        30.29F
$$

AZZ023-022000-
GREATER PHOENIX AREA

CITY           SKY/WX    TMP DP  RH WIND       PRES   REMARKS
PHOENIX        PTSUNNY   95  56  26 VRB3      29.91F
BUCKEYE        PTSUNNY   93  46  20 E6        29.92F
GLENDALE       PTSUNNY   97  52  21 VRB5      29.94F
LUKE AFB       PTSUNNY   96  51  21 VRB1      29.91F
DEER VALLEY    PTSUNNY   92  55  28 S7        29.94F
SCOTTSDALE     PTSUNNY   90  53  28 VRB5      29.97F
MESA-FALCON    PTSUNNY   93  48  21 S7        29.95F
MESA-GATEWAY   MOSUNNY   93  52  24 CALM      29.97F
CHANDLER       PTSUNNY   93  54  26 VRB3      29.94F
$$

AZZ027-028-022000-
SOUTHWEST MARICOPA COUNTY AND PINAL COUNTY

CITY           SKY/WX    TMP DP  RH WIND       PRES   REMARKS
CASA GRANDE    MOSUNNY   95  54  24 CALM      29.94F
GILA BEND      PTSUNNY   99  51  19 VRB7      29.89F
$$

AZZ503-504-507>509-022000-
SOUTHEAST ARIZONA

CITY           SKY/WX    TMP DP  RH WIND       PRES   REMARKS
TUCSON         PTSUNNY   91  62  37 CALM      30.05F
DAVIS-MONTHAN  PTSUNNY   88  62  41 NW3       30.03F
RYAN FIELD     SUNNY     90  64  43 NW6       30.03F
NOGALES        MOSUNNY   89  59  36 SW7       30.13F
SIERRA VISTA   TSTM      75  63  64 NW13      30.19F
DOUGLAS        SUNNY     86  57  37 CALM      30.13F
SAFFORD        MOSUNNY   88  62  41 VRB7      30.04F
$$

AZZ020-021-025-026-031-022000-
SOUTHWEST ARIZONA

CITY           SKY/WX    TMP DP  RH WIND       PRES   REMARKS
YUMA           PTSUNNY   98  59  27 S14G20    29.84F
$$

CAZ031-033-041-043-047-048-061-022000-
SOUTHERN CALIFORNIA

CITY           SKY/WX    TMP DP  RH WIND       PRES   REMARKS
DOWNTOWN L.A.  SUNNY     79  60  52 CALM      29.95F
L.A. AIRPORT   PTSUNNY   73  61  65 W14       29.97F
SAN DIEGO      PTSUNNY   74  58  57 W9        29.98F
BURBANK        SUNNY     77  58  51 SW8       29.95F
ONTARIO        PTSUNNY   78  56  46 S6        29.97F
RIVERSIDE      MOSUNNY   79  57  46 VRB7      29.96F
PALM SPRINGS   PTSUNNY   95  46  18 CALM      29.87F
EL CENTRO NAS  PTSUNNY   96  51  21 VRB5      29.84F
IMPERIAL       MOSUNNY   98  48  18 N6        29.82F
BLYTHE         PTSUNNY   94  57  28 SE12G22   29.86F
NEEDLES        MOSUNNY  100  46  16 S12       29.87F
$$

NVZ020-UTZ003-022000-
SOUTHERN NEVADA-UTAH

CITY           SKY/WX    TMP DP  RH WIND       PRES   REMARKS
LAS VEGAS      PTSUNNY   95  47  19 S10G24    29.87F
SALT LAKE CITY MOSUNNY   88  46  23 SE23      29.97F
$$

NMZ009-TXZ055-022000-
NEW MEXICO-WEST TEXAS

CITY           SKY/WX    TMP DP  RH WIND       PRES   REMARKS
ALBUQUERQUE    PTSUNNY   85  48  27 SW5       30.19F
EL PASO        MOSUNNY   94  47  20 VRB5      30.07F
$$


........................KEY........................
SKY/WX - SKY CONDITION/WEATHER
TMP    - TEMPERATURE IN FAHRENHEIT
DP     - DEW POINT IN FAHRENHEIT
RH     - RELATIVE HUMIDITY IN PERCENT
WIND   - DIRECTION AND SPEED IN MILES PER HOUR (MPH)
VRB    - VARIABLE WIND DIRECTION
PRES   - MEAN SEA LEVEL PRESSURE IN INCHES OF MERCURY
         F - FALLING PRESSURE   R - RISING PRESSURE
         S - STEADY PRESSURE
VSB    - VISIBILITY IN MILES
HX     - HEAT INDEX IN FAHRENHEIT
WCI    - WIND CHILL INDEX IN FAHRENHEIT
TC     - TEMPERATURE IN CELSIUS WHICH IS ALSO KNOWN AS
         TEMPERATURE IN CENTIGRADE
AFB    - AIR FORCE BASE
         LUKE AFB IS LUKE AIR FORCE BASE
         DAVIS-MONTHAN IS DAVIS-MONTHAN AIR FORCE BASE
NAS    - NAVAL AIR STATION
         EL CENTRO NAS IS EL CENTRO NAVAL AIR STATION
N/A    - NOT AVAILABLE



USA.gov is the U.S. government's official web portal to all federal, state and local government web resources and services.